TimeEST,TemperatureF,Dew PointF,Humidity,Sea Level PressureIn,VisibilityMPH,Wind Direction,Wind SpeedMPH,Gust SpeedMPH,PrecipitationIn,Events,Conditions,WindDirDegrees,DateUTC
12:15 AM,24.8,21.2,86,30.15,10.0,SW,4.6,-,N/A,,Clear,230,2013-01-08 05:15:00
12:35 AM,23.0,19.4,86,30.14,10.0,WSW,4.6,-,N/A,,Clear,240,2013-01-08 05:35:00
12:55 AM,24.8,19.4,80,30.14,10.0,WSW,3.5,-,N/A,,Clear,240,2013-01-08 05:55:00
1:15 AM,24.8,19.4,80,30.14,10.0,SW,4.6,-,N/A,,Clear,220,2013-01-08 06:15:00
1:35 AM,24.8,19.4,80,30.14,7.0,SW,5.8,-,N/A,,Clear,220,2013-01-08 06:35:00
1:55 AM,24.8,21.2,86,30.14,7.0,SW,6.9,-,N/A,,Clear,230,2013-01-08 06:55:00
2:15 AM,24.8,21.2,86,30.15,7.0,SW,8.1,-,N/A,,Clear,230,2013-01-08 07:15:00
2:24 AM,24.8,21.2,86,30.15,7.0,SW,6.9,-,N/A,,Clear,230,2013-01-08 07:24:00
2:52 AM,24.8,21.2,86,30.15,7.0,SW,5.8,-,N/A,,Clear,220,2013-01-08 07:52:00
2:55 AM,24.8,21.2,86,30.15,10.0,SW,5.8,-,N/A,,Clear,220,2013-01-08 07:55:00
3:15 AM,24.8,21.2,86,30.15,10.0,SW,6.9,-,N/A,,Clear,220,2013-01-08 08:15:00
3:34 AM,24.8,21.2,86,30.15,7.0,SW,6.9,-,N/A,,Clear,220,2013-01-08 08:34:00
3:55 AM,24.8,21.2,86,30.15,7.0,SW,6.9,-,N/A,,Clear,220,2013-01-08 08:55:00
4:15 AM,24.8,21.2,86,30.15,7.0,SW,5.8,-,N/A,,Clear,230,2013-01-08 09:15:00
4:34 AM,24.8,21.2,86,30.15,7.0,SW,5.8,-,N/A,,Clear,220,2013-01-08 09:34:00
4:55 AM,24.8,21.2,86,30.15,7.0,SW,5.8,-,N/A,,Clear,220,2013-01-08 09:55:00
5:15 AM,24.8,21.2,86,30.14,7.0,SSW,4.6,-,N/A,,Clear,210,2013-01-08 10:15:00
5:35 AM,24.8,21.2,86,30.14,7.0,SSW,5.8,-,N/A,,Clear,200,2013-01-08 10:35:00
5:55 AM,24.8,21.2,86,30.14,7.0,SSW,5.8,-,N/A,,Clear,200,2013-01-08 10:55:00
6:15 AM,24.8,21.2,86,30.14,7.0,SSW,6.9,-,N/A,,Clear,200,2013-01-08 11:15:00
6:35 AM,24.8,21.2,86,30.14,7.0,SSW,3.5,-,N/A,,Clear,210,2013-01-08 11:35:00
6:55 AM,24.8,21.2,86,30.16,7.0,Calm,Calm,-,N/A,,Clear,0,2013-01-08 11:55:00
7:15 AM,24.8,21.2,86,30.16,7.0,South,4.6,-,N/A,,Clear,190,2013-01-08 12:15:00
7:35 AM,24.8,21.2,86,30.17,7.0,South,4.6,-,N/A,,Clear,190,2013-01-08 12:35:00
7:55 AM,24.8,21.2,86,30.17,7.0,South,3.5,-,N/A,,Clear,190,2013-01-08 12:55:00
8:14 AM,24.8,21.2,86,30.17,7.0,South,4.6,-,N/A,,Clear,190,2013-01-08 13:14:00
8:35 AM,24.8,21.2,86,30.17,7.0,South,3.5,-,N/A,,Clear,190,2013-01-08 13:35:00
9:15 AM,26.6,21.2,80,30.19,5.0,South,4.6,-,N/A,,Clear,190,2013-01-08 14:15:00
9:35 AM,26.6,21.2,80,30.20,5.0,South,4.6,-,N/A,,Haze,190,2013-01-08 14:35:00
9:55 AM,26.6,23.0,86,30.20,5.0,South,4.6,-,N/A,,Clear,190,2013-01-08 14:55:00
10:15 AM,28.4,23.0,80,30.21,7.0,South,6.9,-,N/A,,Clear,190,2013-01-08 15:15:00
10:35 AM,30.2,24.8,80,30.21,7.0,SSW,6.9,-,N/A,,Clear,200,2013-01-08 15:35:00
10:54 AM,30.2,24.8,80,30.22,7.0,SSW,9.2,-,N/A,,Clear,200,2013-01-08 15:54:00
11:15 AM,30.2,24.8,80,30.21,7.0,SSW,8.1,-,N/A,,Clear,200,2013-01-08 16:15:00
11:35 AM,32.0,26.6,80,30.20,7.0,SSW,6.9,-,N/A,,Clear,200,2013-01-08 16:35:00
11:54 AM,33.8,26.6,75,30.20,7.0,SSW,6.9,-,N/A,,Clear,210,2013-01-08 16:54:00
12:15 PM,33.8,26.6,75,30.19,7.0,SSW,8.1,-,N/A,,Clear,210,2013-01-08 17:15:00
12:35 PM,33.8,26.6,75,30.18,7.0,SSW,8.1,-,N/A,,Clear,210,2013-01-08 17:35:00
12:54 PM,33.8,26.6,75,30.18,10.0,SSW,4.6,-,N/A,,Clear,200,2013-01-08 17:54:00
1:15 PM,33.8,26.6,75,30.18,7.0,SW,4.6,-,N/A,,Clear,230,2013-01-08 18:15:00
1:35 PM,35.6,26.6,70,30.17,10.0,SW,3.5,-,N/A,,Clear,220,2013-01-08 18:35:00
1:54 PM,35.6,26.6,70,30.17,7.0,SW,3.5,-,N/A,,Clear,230,2013-01-08 18:54:00
2:15 PM,35.6,26.6,70,30.16,10.0,South,6.9,-,N/A,,Clear,170,2013-01-08 19:15:00
2:55 PM,37.4,26.6,65,30.16,10.0,South,9.2,-,N/A,,Clear,190,2013-01-08 19:55:00
3:15 PM,37.4,26.6,65,30.16,10.0,South,5.8,-,N/A,,Clear,180,2013-01-08 20:15:00
3:35 PM,37.4,26.6,65,30.17,10.0,South,8.1,-,N/A,,Clear,180,2013-01-08 20:35:00
3:55 PM,37.4,26.6,65,30.17,10.0,South,10.4,-,N/A,,Clear,180,2013-01-08 20:55:00
4:14 PM,35.6,26.6,70,30.17,10.0,South,10.4,-,N/A,,Clear,190,2013-01-08 21:14:00
4:35 PM,35.6,26.6,70,30.18,10.0,SSW,8.1,-,N/A,,Clear,200,2013-01-08 21:35:00
4:55 PM,35.6,26.6,70,30.18,10.0,South,4.6,-,N/A,,Clear,190,2013-01-08 21:55:00
5:15 PM,33.8,26.6,75,30.17,10.0,South,5.8,-,N/A,,Clear,180,2013-01-08 22:15:00
5:35 PM,33.8,26.6,75,30.17,10.0,SSE,3.5,-,N/A,,Clear,160,2013-01-08 22:35:00
5:55 PM,33.8,26.6,75,30.17,10.0,Calm,Calm,-,N/A,,Clear,0,2013-01-08 22:55:00
6:15 PM,33.8,24.8,70,30.16,10.0,South,4.6,-,N/A,,Clear,170,2013-01-08 23:15:00
6:34 PM,32.0,24.8,75,30.16,10.0,SSE,5.8,-,N/A,,Clear,160,2013-01-08 23:34:00
6:55 PM,32.0,24.8,75,30.16,10.0,SSE,5.8,-,N/A,,Clear,160,2013-01-08 23:55:00
7:15 PM,30.2,24.8,80,30.16,10.0,South,6.9,-,N/A,,Clear,170,2013-01-09 00:15:00
7:35 PM,30.2,24.8,80,30.16,10.0,South,6.9,-,N/A,,Clear,170,2013-01-09 00:35:00
7:55 PM,30.2,24.8,80,30.15,10.0,SSE,8.1,-,N/A,,Clear,160,2013-01-09 00:55:00
8:14 PM,30.2,24.8,80,30.15,10.0,South,9.2,-,N/A,,Clear,170,2013-01-09 01:14:00
8:35 PM,32.0,24.8,75,30.14,10.0,South,10.4,-,N/A,,Clear,170,2013-01-09 01:35:00
8:55 PM,32.0,26.6,80,30.14,10.0,South,10.4,-,N/A,,Clear,170,2013-01-09 01:55:00
9:15 PM,32.0,26.6,80,30.14,10.0,South,9.2,-,N/A,,Clear,180,2013-01-09 02:15:00
9:35 PM,32.0,26.6,80,30.15,10.0,South,8.1,-,N/A,,Clear,190,2013-01-09 02:35:00
9:55 PM,32.0,26.6,80,30.14,10.0,South,10.4,-,N/A,,Clear,190,2013-01-09 02:55:00
10:14 PM,32.0,26.6,80,30.13,10.0,South,9.2,-,N/A,,Clear,190,2013-01-09 03:14:00
10:34 PM,32.0,26.6,80,30.13,10.0,South,9.2,-,N/A,,Clear,180,2013-01-09 03:34:00
11:14 PM,33.8,26.6,75,30.12,10.0,South,13.8,-,N/A,,Clear,190,2013-01-09 04:14:00
11:35 PM,33.8,26.6,75,30.12,10.0,South,11.5,-,N/A,,Clear,190,2013-01-09 04:35:00